Regional Weather Roundup
Issued by NWS

Home | Current Version | Previous Version | Text Only | Print | Product List | Glossary Off
Versions: 1 2 3 4 5 6 7 8 9 10 11 12 13 14 15 16 17 18 19 20 21 22 23 24 25 26 27 28 29 30 31 32 33 34 35 36 37 38 39 40 41 42 43 44 45 46 47 48 49 50

000
ASUS43 KLMK 251310
RWRKY
KENTUCKY REGIONAL WEATHER ROUNDUP
NATIONAL WEATHER SERVICE LOUISVILLE KY
900 AM EDT SAT APR 25 2015

NOTE "FAIR" INDICATES FEW OR NO CLOUDS BELOW 12,000 FEET
WITH NO SIGNIFICANT WEATHER AND/OR OBSTRUCTIONS TO VISIBILITY.

KYZ001>023-026-027-061>063-070>075-251400-
WESTERN AND SOUTH CENTRAL KENTUCKY

CITY           SKY/WX    TMP DP  RH WIND       PRES   REMARKS
PADUCAH        CLOUDY    59  55  87 SE7       29.63F
HENDERSON      CLOUDY    55  50  82 SE7       29.65F
OWENSBORO      CLOUDY    56  53  89 SE12      29.68F
HOPKINSVILLE   CLOUDY    59  56  92 SE5       29.67F
BOWLING GREEN  CLOUDY    58  53  84 SE6       29.71R
GLASGOW        CLOUDY    57  54  91 CALM      29.71F
$$

KYZ024-025-028>034-038-045-046-053-251400-
NORTH CENTRAL KENTUCKY

CITY           SKY/WX    TMP DP  RH WIND       PRES   REMARKS
LOUISVILLE/SDF LGT RAIN  51  47  86 E8        29.71F FOG
LOUISVILLE/LOU LGT RAIN  51  47  86 E7        29.72F
FORT KNOX      LGT RAIN  50  48  93 E9        29.69F VSB 1
$$

KYZ035>037-039>044-047>052-055>060-089>105-251400-
NORTHEAST KENTUCKY

CITY           SKY/WX    TMP DP  RH WIND       PRES   REMARKS
LEXINGTON      LGT RAIN  50  45  83 SE10      29.76F
COVINGTON      CLOUDY    48  41  76 E12       29.76F
FRANKFORT      LGT RAIN  50  44  80 E8        29.75F
$$

KYZ054-064>069-076>088-106>120-251400-
SOUTHEAST KENTUCKY

CITY           SKY/WX    TMP DP  RH WIND       PRES   REMARKS
JACKSON        CLOUDY    48  42  80 CALM      29.80F
LONDON         CLOUDY    54  42  64 NE3       29.76R
SOMERSET       DRIZZLE   52  50  93 CALM      29.76F
MIDDLESBORO    LGT RAIN  53  51  92 S7        29.77F
MONTICELLO     CLOUDY    55  53  93 CALM      29.76F
$$



USA.gov is the U.S. government's official web portal to all federal, state and local government web resources and services.